Find OneWeb SL0162

NORAD ID: 48056 Int'l Des: 2021-025 Owner: ONEWEBN Country: UK Constellation: oneweb operational
LEOCIRCULARPOLARONEWEB_TYPE

当前视图

正在加载3D地球...

About OneWeb SL0162

OneWeb SL0162 (NORAD 48056) is a oneweb constellation satellite launched Mar 25, 2021 by ONEWEBN of UK. It operates in LEO, CIRCULAR, POLAR, ONEWEB_TYPE orbit with a mass of 148.00 kg.

关于 OneWeb SL0162

正在加载描述...

即将过境

Passes for default location (London). Set your location on the main map for personalized predictions.

高度历史

Loading altitude history...

两行轨道根数

1 48056U 21025Q 26170.87226839 .00000279 00000-0 72964-3 0 9993
2 48056 87.8960 319.6888 0001962 94.2474 265.8880 13.13470076253890
Epoch: Jun 19, 2026 • Age: 11 hours

当前状态

高度 1221.9 km
速度 7.25 km/s
星下点 82.11°N, 89.74°E
发射日期 Mar 25, 2021
运行时间 5.2 years
类型 internet

技术详情

分类 Payload
质量 148.00 kg
干质量 140.00 kg
总质量 148.00 kg
长度 1.30 m
直径 1.00 m
跨度 5.00 m
形状 Trapezoid+2 pan
制造商 ONEWUS
平台类型 ARROW
阶段状态 In Orbit
所有者/国家 ONEWEBN/UK

Most Searched